| time (UTC) | temp C | wind direction | speed KPH | gust KPH | rain 1hr cm | rain 24hr cm | rain mn cm | humidity % | barometer mb |
| 20260505200007 | 23 | 69 | 0.0 | 0.0 | 0.00 | 0.03 | 0.03 | 43 | 1002.9 |
| 20260505194555 | 23 | 327 | 0.0 | 0.0 | 0.00 | 0.03 | 0.03 | 44 | 1003.2 |
| 20260505193102 | 23 | 5 | 0.0 | 0.0 | 0.00 | 0.03 | 0.03 | 45 | 1003.2 |
| 20260505191605 | 23 | 142 | 0.0 | 0.0 | 0.00 | 0.03 | 0.03 | 44 | 1003.4 |
| 20260505190119 | 23 | 128 | 0.0 | 0.0 | 0.00 | 0.03 | 0.03 | 43 | 1003.6 |
| 20260505184609 | 23 | 87 | 0.0 | 0.0 | 0.00 | 0.03 | 0.03 | 43 | 1003.5 |
| 20260505183053 | 23 | 16 | 0.0 | 0.0 | 0.00 | 0.03 | 0.03 | 43 | 1003.6 |
| 20260505181502 | 23 | 36 | 0.0 | 0.0 | 0.00 | 0.03 | 0.03 | 44 | 1004.0 |
| 20260505180100 | 23 | 57 | 0.0 | 0.0 | 0.00 | 0.03 | 0.03 | 43 | 1004.4 |
| 20260505174556 | 23 | 30 | 0.0 | 0.0 | 0.00 | 0.03 | 0.03 | 43 | 1004.6 |
| 20260505173046 | 23 | 308 | 0.0 | 0.0 | 0.00 | 0.03 | 0.03 | 45 | 1004.6 |
| 20260505171538 | 23 | 246 | 0.0 | 0.0 | 0.00 | 0.03 | 0.03 | 45 | 1004.6 |
| 20260505170011 | 23 | 16 | 0.0 | 0.0 | 0.00 | 0.03 | 0.03 | 43 | 1004.8 |
| 20260505164604 | 23 | 294 | 0.0 | 0.0 | 0.00 | 0.03 | 0.03 | 46 | 1004.8 |
| 20260505163107 | 22 | 119 | 0.0 | 0.0 | 0.00 | 0.03 | 0.03 | 46 | 1005.3 |
| 20260505161542 | 21 | 47 | 0.0 | 0.0 | 0.00 | 0.03 | 0.03 | 49 | 1005.7 |
| 20260505153005 | 21 | 246 | 0.0 | 0.0 | 0.00 | 0.03 | 0.03 | 53 | 1006.3 |
| 20260505151558 | 20 | 344 | 0.0 | 0.0 | 0.00 | 0.03 | 0.03 | 54 | 1006.4 |
| 20260505150136 | 20 | 39 | 0.0 | 0.0 | 0.00 | 0.03 | 0.03 | 54 | 1006.6 |
| 20260505124532 | 15 | 37 | 0.0 | 0.0 | 0.00 | 0.03 | 0.03 | 70 | 1007.3 |
| 20260505123010 | 14 | 355 | 0.0 | 0.0 | 0.00 | 0.03 | 0.03 | 74 | 1007.3 |
| 20260505121533 | 13 | 65 | 0.0 | 0.0 | 0.00 | 0.03 | 0.03 | 74 | 1007.3 |
| 20260505120104 | 13 | 107 | 0.0 | 0.0 | 0.03 | 0.03 | 0.03 | 85 | 1007.5 |
| 20260505114527 | 11 | 154 | 0.0 | 0.0 | 0.03 | 0.03 | 0.03 | 90 | 1007.7 |
| 20260505113007 | 11 | 246 | 0.0 | 0.0 | 0.03 | 0.03 | 0.03 | 89 | 1007.6 |
| 20260505111604 | 11 | 261 | 0.0 | 0.0 | 0.03 | 0.03 | 0.03 | 85 | 1007.4 |
| 20260505101518 | 8 | 78 | 0.0 | 0.0 | 0.00 | 0.00 | 0.00 | 82 | 1007.2 |
| 20260505100139 | 9 | 78 | 0.0 | 0.0 | 0.00 | 0.00 | 0.00 | 80 | 1007.0 |
| 20260505094611 | 9 | 78 | 0.0 | 0.0 | 0.00 | 0.00 | 0.00 | 80 | 1007.1 |
| 20260505093048 | 10 | 78 | 0.0 | 0.0 | 0.00 | 0.00 | 0.00 | 79 | 1007.1 |
| 20260505091548 | 10 | 78 | 0.0 | 0.0 | 0.00 | 0.00 | 0.00 | 77 | 1006.9 |
| 20260505090138 | 10 | 78 | 0.0 | 0.0 | 0.00 | 0.00 | 0.00 | 75 | 1007.0 |
| 20260505084551 | 11 | 78 | 0.0 | 0.0 | 0.00 | 0.00 | 0.00 | 72 | 1007.3 |
| 20260505083041 | 12 | 78 | 0.0 | 0.0 | 0.00 | 0.00 | 0.00 | 67 | 1007.3 |
| 20260505081524 | 13 | 65 | 0.0 | 0.0 | 0.00 | 0.00 | 0.00 | 63 | 1007.2 |
| 20260505080107 | 13 | 66 | 0.0 | 0.0 | 0.00 | 0.00 | 0.00 | 62 | 1007.2 |
| 20260505074504 | 13 | 73 | 0.0 | 0.0 | 0.00 | 0.00 | 0.00 | 61 | 1007.1 |
| 20260505073100 | 13 | 51 | 0.0 | 0.0 | 0.00 | 0.00 | 0.00 | 60 | 1007.1 |
| 20260505071538 | 13 | 81 | 0.0 | 0.0 | 0.00 | 0.00 | 0.00 | 59 | 1007.1 |
| 20260505070018 | 13 | 282 | 0.0 | 0.0 | 0.00 | 0.00 | 0.00 | 58 | 1007.3 |
| 20260505064537 | 14 | 30 | 0.0 | 0.0 | 0.00 | 0.00 | 0.00 | 58 | 1007.3 |
| 20260505063047 | 14 | 225 | 0.0 | 0.0 | 0.00 | 0.00 | 0.00 | 57 | 1007.3 |
| 20260505061529 | 14 | 23 | 0.0 | 0.0 | 0.00 | 0.00 | 0.00 | 57 | 1007.4 |
| 20260505060050 | 14 | 261 | 0.0 | 0.0 | 0.00 | 0.00 | 0.00 | 57 | 1007.6 |
| 20260505054537 | 13 | 300 | 0.0 | 0.0 | 0.00 | 0.00 | 0.00 | 58 | 1007.8 |
| 20260505053040 | 13 | 46 | 0.0 | 0.0 | 0.00 | 0.00 | 0.00 | 60 | 1007.7 |
| 20260505051505 | 13 | 13 | 0.0 | 0.0 | 0.00 | 0.00 | 0.00 | 60 | 1007.7 |
| 20260505041551 | 13 | 17 | 0.0 | 0.0 | 0.00 | 0.00 | 0.00 | 61 | 1008.0 |
| 20260505040145 | 12 | 74 | 0.0 | 0.0 | 0.00 | 0.00 | 0.00 | 64 | 1008.0 |
| 20260505034608 | 11 | 144 | 0.0 | 0.0 | 0.00 | 0.00 | 0.00 | 70 | 1008.0 |